[[{"header":{"parameterUnit":"m.s-1","parameterCategory":1,"la1":30.2991,"la2":30.254,"lo1":-89.0895,"lo2":-89.0444,"dy":0.0017,"dx":0.0017,"nx":28,"ny":28,"refTime":"2024-07-13T21:00:00:Z","depth":0,"parameterNumber":2,"parameterNumberName":"U-component_of_WINDS"},"data":[0,0,0,0,0,0,0,0,0,0,0,0,0,0,0,0,0,0,0,0,0,0,0,0,0,0,0,0,0,0,0,0,0,0,0,0,0,0,0,0,0,0,0,0,0,0,0,0,0,0,0,0,0,0,0,0,0,0,2.6895,2.6896,0,2.6997,2.6998,2.6999,2.6948,2.6945,2.6942,2.694,2.7047,2.7052,2.7057,0,0,0,0,0,0,0,0,0,0,0,0,0,2.6657,2.6661,2.6895,2.6896,2.6897,2.6997,2.6998,2.7,2.6948,2.6945,2.6941,2.6938,2.7045,2.7051,2.7057,0,0,0,0,0,0,0,0,0,0,0,0,0,2.676,2.6663,2.6895,2.6884,2.6884,2.6997,2.6998,2.7,2.6949,2.6945,2.6941,2.6937,2.7043,2.705,2.7058,2.7189,0,0,2.7083,2.7086,0,0,0,0,0,0,0,0,2.6754,2.6769,2.6884,2.6885,2.6885,2.6955,2.6953,2.7063,2.695,2.6924,2.694,2.6935,2.702,2.7029,2.7057,2.7194,2.7198,2.7084,2.7088,2.7092,2.7094,0,0,0,0,0,0,0,2.6747,2.6764,2.6935,2.6886,2.6886,2.6874,2.6884,2.6974,2.6993,2.6926,2.6922,2.6935,2.7019,2.705,2.7059,2.72,2.7083,2.7091,2.7095,2.7099,2.7447,2.7451,0,0,0,0,0,0,2.674,2.6758,2.6932,2.6938,2.6808,2.6882,2.6893,2.6937,2.6992,2.6997,2.6939,2.6932,2.7038,2.705,2.7063,2.7218,2.7092,2.7099,2.7104,2.7443,2.7448,2.7453,0,0,0,0,0,0,2.6735,2.6756,2.6928,2.6847,2.6868,2.689,2.694,2.6941,2.6971,2.7002,2.7005,2.6966,2.7035,2.7052,2.7157,2.7221,2.7103,2.711,2.7438,2.7445,2.7451,2.753,0,0,0,0,0,0,2.6729,2.6755,2.6804,2.6849,2.6873,2.702,2.6944,2.6946,2.6985,2.6978,2.7028,2.7033,2.7033,2.7146,2.7165,2.723,2.7117,2.7432,2.7441,2.7449,2.7522,2.7539,2.7553,0,0,0,0,0,2.672,2.6823,2.6807,2.6828,2.6935,2.7024,2.7038,2.7036,2.6991,2.7041,2.706,2.7031,2.7211,2.7157,2.7179,2.7247,2.7428,2.7438,2.7448,2.7515,2.7536,2.7553,0,0,0,0,0,0,2.6786,2.6829,2.6811,2.6932,2.6975,2.7015,2.7078,2.7058,2.7115,2.7106,2.7102,2.7113,2.7223,2.7246,2.7184,2.7375,2.7313,2.7328,2.7356,2.7376,2.7391,2.7383,2.7123,0,0,0,0,0,2.6815,2.6883,2.6917,2.702,2.7042,2.7057,2.7096,2.709,2.7135,2.7153,2.718,2.7225,2.7291,2.7335,2.7398,2.7525,2.7535,2.7583,2.7599,2.7611,2.7624,2.7692,2.7714,2.7486,2.7486,2.7486,0,0,2.6875,2.6906,2.695,2.7034,2.7067,2.7138,2.7072,2.7151,2.7203,2.7165,2.7266,2.7287,2.7337,2.7454,2.7507,2.7476,2.7689,2.7624,2.7634,2.764,2.7705,2.7726,2.7745,2.7493,2.7491,2.749,0,0,2.7019,2.7051,2.7139,2.7173,2.7223,2.7231,2.7253,2.7297,2.7309,2.741,2.7382,2.7445,2.756,2.7597,2.763,2.7788,2.7764,2.7809,2.789,2.7957,2.7975,2.799,2.8046,2.8066,2.7822,2.7822,2.7822,0,2.7087,2.7193,2.7188,2.7268,2.7305,2.7273,2.7362,2.7396,2.7464,2.7491,2.7456,2.7598,2.763,2.7754,2.7792,2.7821,2.7845,2.7803,2.7972,2.7988,2.8003,2.8056,2.8077,2.7827,2.7826,2.7826,2.7825,0,2.7273,2.7347,2.7413,2.7478,2.7523,2.7608,2.7616,2.7662,2.7653,2.7666,2.7769,2.7805,2.7874,2.7904,2.7896,2.8027,2.8006,2.7972,2.7909,2.803,2.8079,2.81,2.7834,2.7832,2.7831,2.783,0,0,2.7463,2.7523,2.7548,2.7576,2.7629,2.7686,2.7769,2.7836,2.7875,2.7923,2.7993,2.809,2.8059,2.8097,2.8093,2.8151,2.8273,2.811,2.8111,2.8138,2.8419,2.8443,2.8467,2.8257,2.8261,2.8264,2.8414,0,2.761,2.7754,2.7752,2.7886,2.7953,2.7923,2.7996,2.8036,2.805,2.811,2.8125,2.8194,2.8148,2.817,2.8227,2.8246,2.8329,2.8235,2.8322,2.8325,2.8309,2.8493,2.852,2.866,2.8434,2.8437,2.8439,0,2.7802,2.7855,2.7995,2.8036,2.8065,2.813,2.819,2.8248,2.8293,2.8299,2.8341,2.8327,2.8412,2.8347,2.8463,2.8399,2.8435,2.845,2.8455,2.8462,2.8389,2.8505,2.8704,2.8725,2.847,2.8467,2.8465,0,2.7924,2.8031,2.8129,2.8154,2.8206,2.8252,2.8275,2.8316,2.8356,2.8409,2.8435,2.8498,2.8533,2.8582,2.8586,2.8538,2.8703,2.8638,2.871,2.871,2.8746,2.8743,2.8953,2.877,2.877,2.8769,2.8769,0,2.8089,2.8176,2.8184,2.8244,2.8341,2.8337,2.8433,2.8452,2.8489,2.8552,2.8531,2.8591,2.8593,2.8654,2.8658,2.8753,2.877,2.8777,2.8777,2.8778,2.8777,2.8801,2.8791,2.8775,2.8774,2.8773,2.8772,0,2.8242,2.8251,2.8355,2.8395,2.8407,2.8476,2.851,2.8567,2.8579,2.8659,2.8678,2.8697,2.8768,2.8777,2.8861,2.8863,2.8978,2.8968,2.8962,2.896,2.9032,2.9024,2.9263,2.9294,2.9092,2.9094,2.9095,0,2.8346,2.8412,2.8458,2.8498,2.8524,2.859,2.863,2.8629,2.8672,2.8728,2.8778,2.8847,2.8902,2.9018,2.9039,2.9103,2.9094,2.9173,2.9103,2.9103,2.9094,2.909,2.9096,2.9186,2.9189,2.919,2.9192,0,2.8529,2.853,2.8589,2.8649,2.8697,2.8745,2.879,2.8824,2.8829,2.8879,2.8951,2.8993,2.9078,2.9147,2.9209,2.9234,2.9214,2.9214,2.9233,2.9236,2.9229,2.9233,2.8998,2.9208,2.9206,2.9205,2.9204,2.9204,2.8661,2.8717,2.8758,2.8824,2.8857,2.8899,2.8954,2.8973,2.9032,2.91,2.9097,2.9176,2.9219,2.9301,2.933,2.9392,2.9366,2.9395,2.9402,2.9409,2.9416,2.922,2.9404,2.9403,2.9403,2.9402,2.9402,0,2.8842,2.8867,2.8927,2.899,2.9041,2.9017,2.9065,2.911,2.918,2.9221,2.9275,2.9357,2.9424,2.945,2.9515,2.956,2.9552,2.9577,2.9573,2.9579,2.9436,2.9412,2.9582,2.9582,2.9582,2.9582,2.9582,2.9582,2.8943,2.9037,2.9043,2.9153,2.9177,2.9254,2.9283,2.9322,2.9355,2.9447,2.9502,2.9518,2.9554,2.9621,2.968,2.9687,2.9711,2.974,2.9742,2.9608,2.9589,2.9572,2.9549,2.9745,2.9746,2.988,2.9881,2.9882]},{"header":{"parameterUnit":"m.s-1","parameterCategory":1,"la1":30.2991,"la2":30.254,"lo1":-89.0895,"lo2":-89.0444,"dy":0.0017,"dx":0.0017,"nx":28,"ny":28,"refTime":"2024-07-13T21:00:00:Z","depth":0,"parameterNumber":3,"parameterNumberName":"V-component_of_WINDS"},"data":[0,0,0,0,0,0,0,0,0,0,0,0,0,0,0,0,0,0,0,0,0,0,0,0,0,0,0,0,0,0,0,0,0,0,0,0,0,0,0,0,0,0,0,0,0,0,0,0,0,0,0,0,0,0,0,0,0,0,0.849,0.8491,0,0.8545,0.8546,0.8546,0.8543,0.8542,0.8541,0.854,0.8598,0.86,0.8602,0,0,0,0,0,0,0,0,0,0,0,0,0,0.8381,0.8383,0.849,0.8491,0.8491,0.8545,0.8546,0.8547,0.8543,0.8542,0.8541,0.854,0.8597,0.86,0.8602,0,0,0,0,0,0,0,0,0,0,0,0,0,0.8432,0.8384,0.849,0.8496,0.8497,0.8545,0.8546,0.8547,0.8543,0.8542,0.8541,0.8539,0.8596,0.8599,0.8603,0.8649,0,0,0.8613,0.8615,0,0,0,0,0,0,0,0,0.8429,0.8436,0.8494,0.8496,0.8497,0.8536,0.8529,0.8581,0.8543,0.8526,0.854,0.8539,0.8578,0.8583,0.8596,0.8651,0.8654,0.8614,0.8616,0.8617,0.8618,0,0,0,0,0,0,0,0.8425,0.8433,0.8512,0.8495,0.8497,0.8496,0.8502,0.8538,0.8558,0.8527,0.8527,0.8533,0.8579,0.8593,0.8597,0.8655,0.8614,0.8617,0.8619,0.862,0.8749,0.875,0,0,0,0,0,0,0.842,0.843,0.851,0.8513,0.8459,0.8499,0.8505,0.8525,0.8558,0.8562,0.8534,0.8533,0.8587,0.8593,0.8599,0.8655,0.8617,0.862,0.8622,0.8748,0.8749,0.8751,0,0,0,0,0,0,0.8418,0.8428,0.8508,0.8472,0.8482,0.8502,0.8524,0.8526,0.854,0.8563,0.8567,0.8545,0.8587,0.8595,0.8636,0.8657,0.8622,0.8625,0.8746,0.8748,0.875,0.8766,0,0,0,0,0,0,0.8415,0.8427,0.8445,0.8472,0.8484,0.8544,0.8525,0.8528,0.8546,0.8545,0.8574,0.8578,0.8586,0.8631,0.8639,0.8661,0.8628,0.8744,0.8747,0.8749,0.8764,0.8768,0.8772,0,0,0,0,0,0.8411,0.8447,0.8445,0.8455,0.8507,0.8545,0.8552,0.856,0.8548,0.8566,0.858,0.8577,0.8653,0.8635,0.8645,0.8667,0.8743,0.8746,0.8749,0.8762,0.8767,0.8772,0,0,0,0,0,0,0.8422,0.8451,0.8449,0.8496,0.8518,0.8544,0.8567,0.8566,0.8592,0.859,0.86,0.8607,0.8648,0.8662,0.8642,0.8713,0.8696,0.8701,0.8703,0.8708,0.8712,0.8708,0.8631,0,0,0,0,0,0.843,0.8458,0.8482,0.8521,0.8532,0.8547,0.8564,0.8569,0.8592,0.8602,0.862,0.8643,0.8671,0.869,0.8718,0.8765,0.8771,0.8785,0.879,0.8793,0.8798,0.8823,0.8829,0.8761,0.8761,0.8761,0,0,0.8446,0.8466,0.8483,0.8523,0.8541,0.857,0.8555,0.8587,0.8609,0.8607,0.8647,0.8661,0.8687,0.8731,0.8751,0.8744,0.8817,0.8797,0.8799,0.8802,0.8826,0.8833,0.8839,0.8763,0.8762,0.8762,0,0,0.8491,0.8509,0.8542,0.856,0.8587,0.8597,0.8604,0.8631,0.864,0.868,0.8678,0.8704,0.8754,0.8773,0.8789,0.8839,0.8837,0.8847,0.887,0.8895,0.89,0.8905,0.8922,0.8929,0.8852,0.8852,0.8852,0,0.8509,0.8553,0.856,0.8592,0.8609,0.8607,0.8641,0.8658,0.8693,0.8705,0.8695,0.8757,0.8775,0.8823,0.8835,0.8848,0.8857,0.8845,0.8898,0.8903,0.8908,0.8925,0.8932,0.8853,0.8853,0.8853,0.8853,0,0.8572,0.8603,0.8627,0.8659,0.8679,0.8712,0.8724,0.8743,0.8746,0.8756,0.8797,0.8818,0.8849,0.8861,0.8864,0.8909,0.8904,0.8896,0.888,0.8916,0.8932,0.8938,0.8855,0.8854,0.8854,0.8854,0,0,0.8627,0.8662,0.8671,0.8685,0.8714,0.8737,0.877,0.88,0.8816,0.884,0.8867,0.8908,0.8901,0.8919,0.8924,0.8945,0.8983,0.8935,0.8936,0.8943,0.9034,0.904,0.9047,0.8981,0.8983,0.8984,0.9032,0,0.8675,0.8732,0.8739,0.879,0.8817,0.8815,0.8843,0.8864,0.8874,0.89,0.8911,0.894,0.8929,0.894,0.896,0.8974,0.9001,0.8971,0.9007,0.9008,0.9001,0.9056,0.9062,0.9107,0.9038,0.9039,0.904,0,0.8739,0.8763,0.8817,0.884,0.8852,0.8877,0.8905,0.8929,0.8952,0.8958,0.8977,0.8979,0.9012,0.8993,0.9039,0.9018,0.9033,0.9041,0.9043,0.9048,0.9027,0.9062,0.9121,0.9128,0.905,0.9049,0.9049,0,0.8774,0.882,0.8857,0.887,0.8898,0.8916,0.8929,0.895,0.8967,0.8992,0.9003,0.9031,0.9046,0.9068,0.9076,0.9062,0.9121,0.9104,0.9127,0.9127,0.9141,0.914,0.9204,0.915,0.9149,0.9149,0.9149,0,0.8827,0.886,0.8873,0.8897,0.8933,0.894,0.8976,0.8988,0.9006,0.9032,0.9032,0.9055,0.9065,0.9091,0.9098,0.9134,0.9141,0.9147,0.9149,0.9147,0.9147,0.9158,0.9155,0.9151,0.9151,0.915,0.915,0,0.8872,0.8883,0.8924,0.8947,0.8953,0.8979,0.8999,0.9021,0.903,0.9063,0.907,0.9086,0.9115,0.9126,0.9162,0.9167,0.9209,0.9208,0.9201,0.9202,0.9225,0.9223,0.9299,0.9309,0.9248,0.9248,0.9249,0,0.8906,0.8931,0.8956,0.8973,0.8986,0.9013,0.903,0.9038,0.9056,0.9083,0.9102,0.9131,0.9155,0.9202,0.9217,0.9244,0.9244,0.9269,0.9248,0.9246,0.9245,0.9243,0.9246,0.9273,0.9273,0.9274,0.9274,0,0.8964,0.8968,0.8993,0.902,0.904,0.9062,0.9082,0.9096,0.9107,0.9127,0.9157,0.9175,0.9212,0.9241,0.9268,0.9281,0.928,0.928,0.9287,0.9287,0.9282,0.9285,0.9212,0.9279,0.9278,0.9278,0.9278,0.9278,0.9005,0.9027,0.9048,0.9075,0.9091,0.9111,0.9132,0.9144,0.9169,0.9199,0.9202,0.9234,0.9255,0.9292,0.9306,0.9331,0.9324,0.9335,0.9337,0.934,0.9342,0.9277,0.9336,0.9336,0.9336,0.9336,0.9336,0,0.9064,0.9077,0.9102,0.913,0.9152,0.9147,0.917,0.9188,0.9216,0.9236,0.9259,0.9293,0.9321,0.9337,0.9364,0.9381,0.9381,0.9388,0.9388,0.939,0.9346,0.9337,0.9388,0.9388,0.9388,0.9388,0.9388,0.9388,0.9097,0.9133,0.9139,0.9183,0.9196,0.9227,0.924,0.9257,0.9273,0.9311,0.9334,0.9343,0.9361,0.939,0.9415,0.9419,0.9429,0.9437,0.9441,0.9399,0.9394,0.9389,0.938,0.9439,0.9439,0.9483,0.9483,0.9484]}]]